TimeCDT,TemperatureF,Dew PointF,Humidity,Sea Level PressureIn,VisibilityMPH,Wind Direction,Wind SpeedMPH,Gust SpeedMPH,PrecipitationIn,Events,Conditions,WindDirDegrees,DateUTC
12:53 AM,63.0,59.0,87,29.94,10.0,NNE,6.9,-,N/A,,Clear,20,2013-07-20 05:53:00
1:53 AM,62.1,59.0,90,29.93,10.0,NNE,4.6,-,N/A,,Clear,30,2013-07-20 06:53:00
2:53 AM,61.0,57.9,90,29.93,10.0,Calm,Calm,-,N/A,,Clear,0,2013-07-20 07:53:00
3:53 AM,59.0,57.0,93,29.91,10.0,Calm,Calm,-,N/A,,Clear,0,2013-07-20 08:53:00
4:53 AM,59.0,57.0,93,29.92,10.0,NNE,4.6,-,N/A,,Clear,20,2013-07-20 09:53:00
5:53 AM,59.0,57.0,93,29.93,10.0,Calm,Calm,-,N/A,,Clear,0,2013-07-20 10:53:00
6:53 AM,61.0,57.9,90,29.96,10.0,NNW,8.1,-,N/A,,Clear,340,2013-07-20 11:53:00
7:53 AM,61.0,59.0,93,29.98,10.0,NE,10.4,-,N/A,,Mostly Cloudy,40,2013-07-20 12:53:00
8:53 AM,63.0,57.9,84,29.98,10.0,ENE,9.2,-,N/A,,Overcast,70,2013-07-20 13:53:00
9:53 AM,64.9,57.9,78,29.95,10.0,SE,4.6,-,N/A,,Scattered Clouds,130,2013-07-20 14:53:00
10:53 AM,71.1,60.1,68,29.96,10.0,NE,10.4,-,N/A,,Clear,40,2013-07-20 15:53:00
11:53 AM,73.0,59.0,61,29.94,10.0,NE,11.5,-,N/A,,Clear,40,2013-07-20 16:53:00
12:53 PM,73.0,60.1,64,29.95,10.0,NE,9.2,-,N/A,,Clear,50,2013-07-20 17:53:00
1:53 PM,73.9,60.1,62,29.95,10.0,NNE,8.1,-,N/A,,Clear,30,2013-07-20 18:53:00
2:53 PM,75.9,60.1,58,29.94,10.0,NNE,10.4,-,N/A,,Partly Cloudy,20,2013-07-20 19:53:00
3:53 PM,75.9,60.1,58,29.95,10.0,NE,9.2,-,N/A,,Partly Cloudy,40,2013-07-20 20:53:00
4:53 PM,77.0,61.0,58,29.94,10.0,NNE,12.7,-,N/A,,Clear,30,2013-07-20 21:53:00
5:53 PM,75.9,60.1,58,29.93,10.0,NNE,9.2,-,N/A,,Partly Cloudy,30,2013-07-20 22:53:00
6:53 PM,73.9,59.0,59,29.93,10.0,NE,10.4,-,N/A,,Clear,50,2013-07-20 23:53:00
7:53 PM,73.0,59.0,61,29.92,10.0,ENE,11.5,-,N/A,,Partly Cloudy,60,2013-07-21 00:53:00
8:53 PM,68.0,57.9,70,29.91,10.0,East,9.2,-,N/A,,Clear,80,2013-07-21 01:53:00
9:53 PM,66.0,57.9,75,29.93,10.0,NE,6.9,-,N/A,,Clear,40,2013-07-21 02:53:00
10:53 PM,64.9,57.0,75,29.92,10.0,NE,9.2,-,N/A,,Partly Cloudy,50,2013-07-21 03:53:00
11:53 PM,64.9,57.0,75,29.93,10.0,ENE,10.4,-,N/A,,Mostly Cloudy,70,2013-07-21 04:53:00